Time,TemperatureF,DewpointF,PressureIn,WindDirection,WindDirectionDegrees,WindSpeedMPH,WindSpeedGustMPH,Humidity,HourlyPrecipIn,Conditions,Clouds,dailyrainin,SoftwareType,DateUTC
2013-05-08 00:01:00,59.0,44.7,29.88,SSE,158,3.4,4.0,59,0.00,,,0.00,WUHU216HW,2013-05-08 05:01:00,
2013-05-08 00:06:00,59.0,44.3,29.88,SE,135,1.1,4.0,58,0.00,,,0.00,WUHU216HW,2013-05-08 05:06:00,
2013-05-08 00:11:00,59.0,44.7,29.88,SSW,203,1.3,1.8,59,0.00,,,0.00,WUHU216HW,2013-05-08 05:11:00,
2013-05-08 00:16:00,58.7,44.4,29.88,SSE,158,0.4,1.8,59,0.00,,,0.00,WUHU216HW,2013-05-08 05:16:00,
2013-05-08 00:21:00,58.5,43.7,29.88,SSW,203,0.9,1.8,58,0.00,,,0.00,WUHU216HW,2013-05-08 05:21:00,
2013-05-08 00:26:00,58.1,44.8,29.88,SSW,203,1.1,1.3,61,0.00,,,0.00,WUHU216HW,2013-05-08 05:26:00,
2013-05-08 00:31:00,58.0,45.5,29.87,South,180,0.9,1.8,63,0.00,,,0.00,WUHU216HW,2013-05-08 05:31:00,
2013-05-08 00:36:00,57.8,44.0,29.87,SSE,158,0.7,1.8,60,0.00,,,0.00,WUHU216HW,2013-05-08 05:36:00,
2013-05-08 00:41:00,57.4,43.3,29.87,ESE,113,1.1,1.3,59,0.00,,,0.00,WUHU216HW,2013-05-08 05:41:00,
2013-05-08 00:46:00,57.2,43.6,29.87,ESE,113,0.7,1.3,60,0.00,,,0.00,WUHU216HW,2013-05-08 05:46:00,
2013-05-08 00:51:00,56.9,43.2,29.87,SSE,158,1.1,1.1,60,0.00,,,0.00,WUHU216HW,2013-05-08 05:51:00,
2013-05-08 00:56:00,56.5,42.8,29.87,SSE,158,1.1,1.6,60,0.00,,,0.00,WUHU216HW,2013-05-08 05:56:00,
2013-05-08 01:01:00,56.3,43.9,29.87,SSW,203,0.0,1.6,63,0.00,,,0.00,WUHU216HW,2013-05-08 06:01:00,
2013-05-08 01:06:00,56.0,44.4,29.87,WSW,248,2.0,2.2,65,0.00,,,0.00,WUHU216HW,2013-05-08 06:06:00,
2013-05-08 01:11:00,55.8,44.2,29.87,SW,225,1.3,2.2,65,0.00,,,0.00,WUHU216HW,2013-05-08 06:11:00,
2013-05-08 01:16:00,55.8,43.7,29.87,SW,225,2.0,2.0,64,0.00,,,0.00,WUHU216HW,2013-05-08 06:16:00,
2013-05-08 01:21:00,55.8,44.6,29.87,SW,225,1.8,2.5,66,0.00,,,0.00,WUHU216HW,2013-05-08 06:21:00,
2013-05-08 01:26:00,56.0,44.4,29.87,SW,225,1.3,2.5,65,0.00,,,0.00,WUHU216HW,2013-05-08 06:26:00,
2013-05-08 01:31:00,56.2,44.6,29.87,SW,225,2.2,3.4,65,0.00,,,0.00,WUHU216HW,2013-05-08 06:31:00,
2013-05-08 01:36:00,56.2,44.6,29.87,SW,225,2.5,3.4,65,0.00,,,0.00,WUHU216HW,2013-05-08 06:36:00,
2013-05-08 01:41:00,56.2,44.6,29.87,SSW,203,1.6,3.1,65,0.00,,,0.00,WUHU216HW,2013-05-08 06:41:00,
2013-05-08 01:46:00,56.2,44.1,29.87,SSW,203,0.9,2.5,64,0.00,,,0.00,WUHU216HW,2013-05-08 06:46:00,
2013-05-08 01:51:00,56.2,44.1,29.86,SSW,203,0.4,1.6,64,0.00,,,0.00,WUHU216HW,2013-05-08 06:51:00,
2013-05-08 01:56:00,55.8,43.7,29.86,SSW,203,0.0,1.1,64,0.00,,,0.00,WUHU216HW,2013-05-08 06:56:00,
2013-05-08 02:01:00,55.4,43.8,29.86,NE,45,1.1,1.1,65,0.00,,,0.00,WUHU216HW,2013-05-08 07:01:00,
2013-05-08 02:06:00,54.9,46.1,29.86,NE,45,3.6,3.6,72,0.00,,,0.00,WUHU216HW,2013-05-08 07:06:00,
2013-05-08 02:11:00,54.5,45.7,29.86,NE,45,2.5,3.6,72,0.00,,,0.00,WUHU216HW,2013-05-08 07:11:00,
2013-05-08 02:16:00,54.2,45.4,29.86,NNE,23,1.8,3.6,72,0.00,,,0.00,WUHU216HW,2013-05-08 07:16:00,
2013-05-08 02:21:00,54.0,45.2,29.86,NE,45,2.0,2.5,72,0.00,,,0.00,WUHU216HW,2013-05-08 07:21:00,
2013-05-08 02:26:00,54.2,45.0,29.86,ENE,68,1.1,2.2,71,0.00,,,0.00,WUHU216HW,2013-05-08 07:26:00,
2013-05-08 02:30:00,54.0,44.1,29.86,NE,45,0.2,2.0,69,0.00,,,0.00,WUHU216HW,2013-05-08 07:30:00,
2013-05-08 02:35:00,53.6,43.8,29.86,ENE,68,1.1,1.1,69,0.00,,,0.00,WUHU216HW,2013-05-08 07:35:00,
2013-05-08 02:40:00,53.5,43.6,29.86,East,90,0.4,1.1,69,0.00,,,0.00,WUHU216HW,2013-05-08 07:40:00,
2013-05-08 02:45:00,53.1,43.2,29.86,East,90,1.1,1.1,69,0.00,,,0.00,WUHU216HW,2013-05-08 07:45:00,
2013-05-08 02:50:00,52.9,43.0,29.86,ESE,113,0.4,1.3,69,0.00,,,0.00,WUHU216HW,2013-05-08 07:50:00,
2013-05-08 02:55:00,52.7,42.9,29.86,ESE,113,0.9,1.3,69,0.00,,,0.00,WUHU216HW,2013-05-08 07:55:00,
2013-05-08 03:00:00,52.6,43.1,29.87,East,90,1.1,1.1,70,0.00,,,0.00,WUHU216HW,2013-05-08 08:00:00,
2013-05-08 03:05:00,52.2,43.1,29.87,ESE,113,0.7,1.3,71,0.00,,,0.00,WUHU216HW,2013-05-08 08:05:00,
2013-05-08 03:10:00,52.2,43.1,29.87,ESE,113,0.7,1.3,71,0.00,,,0.00,WUHU216HW,2013-05-08 08:10:00,
2013-05-08 03:15:00,52.2,43.5,29.87,ESE,113,0.0,1.1,72,0.00,,,0.00,WUHU216HW,2013-05-08 08:15:00,
2013-05-08 03:20:00,52.0,43.7,29.87,SE,135,0.0,0.7,73,0.00,,,0.00,WUHU216HW,2013-05-08 08:20:00,
2013-05-08 03:25:00,51.8,43.2,29.87,South,180,0.2,1.1,72,0.00,,,0.00,WUHU216HW,2013-05-08 08:25:00,
2013-05-08 03:30:00,51.8,43.2,29.87,SSE,158,0.7,1.1,72,0.00,,,0.00,WUHU216HW,2013-05-08 08:30:00,
2013-05-08 03:35:00,51.7,43.0,29.87,SE,135,1.8,2.0,72,0.00,,,0.00,WUHU216HW,2013-05-08 08:35:00,
2013-05-08 03:40:00,51.5,42.9,29.86,SSE,158,1.6,2.0,72,0.00,,,0.00,WUHU216HW,2013-05-08 08:40:00,
2013-05-08 03:45:00,51.5,42.9,29.86,SE,135,1.8,2.5,72,0.00,,,0.00,WUHU216HW,2013-05-08 08:45:00,
2013-05-08 03:50:00,51.5,42.9,29.87,SE,135,1.1,2.5,72,0.00,,,0.00,WUHU216HW,2013-05-08 08:50:00,
2013-05-08 03:55:00,51.3,42.7,29.87,SE,135,1.1,1.8,72,0.00,,,0.00,WUHU216HW,2013-05-08 08:55:00,
2013-05-08 04:00:00,51.3,42.7,29.87,SE,135,1.8,2.5,72,0.00,,,0.00,WUHU216HW,2013-05-08 09:00:00,
2013-05-08 04:05:00,51.1,42.8,29.87,ESE,113,1.8,2.5,73,0.00,,,0.00,WUHU216HW,2013-05-08 09:05:00,
2013-05-08 04:10:00,51.1,42.8,29.87,SE,135,0.4,2.2,73,0.00,,,0.00,WUHU216HW,2013-05-08 09:10:00,
2013-05-08 04:15:00,50.9,42.6,29.87,SE,135,1.1,2.2,73,0.00,,,0.00,WUHU216HW,2013-05-08 09:15:00,
2013-05-08 04:20:00,50.9,42.9,29.87,ESE,113,1.3,2.2,74,0.00,,,0.00,WUHU216HW,2013-05-08 09:20:00,
2013-05-08 04:25:00,50.9,43.3,29.87,SE,135,0.4,2.2,75,0.00,,,0.00,WUHU216HW,2013-05-08 09:25:00,
2013-05-08 04:30:00,50.9,42.9,29.87,SE,135,1.8,2.2,74,0.00,,,0.00,WUHU216HW,2013-05-08 09:30:00,
2013-05-08 04:35:00,50.8,42.8,29.87,SSE,158,1.1,2.5,74,0.00,,,0.00,WUHU216HW,2013-05-08 09:35:00,
2013-05-08 04:40:00,50.8,42.8,29.87,East,90,1.6,2.5,74,0.00,,,0.00,WUHU216HW,2013-05-08 09:40:00,
2013-05-08 04:45:00,50.8,43.8,29.87,ESE,113,2.5,2.5,77,0.00,,,0.00,WUHU216HW,2013-05-08 09:45:00,
2013-05-08 04:50:00,50.8,43.8,29.87,SE,135,2.9,3.4,77,0.00,,,0.00,WUHU216HW,2013-05-08 09:50:00,
2013-05-08 04:55:00,50.8,43.8,29.87,SE,135,2.2,3.4,77,0.00,,,0.00,WUHU216HW,2013-05-08 09:55:00,
2013-05-08 05:00:00,50.9,43.7,29.87,SE,135,1.8,3.1,76,0.00,,,0.00,WUHU216HW,2013-05-08 10:00:00,
2013-05-08 05:05:00,50.8,43.1,29.87,SE,135,1.3,2.5,75,0.00,,,0.00,WUHU216HW,2013-05-08 10:05:00,
2013-05-08 05:10:00,50.4,42.8,29.87,SE,135,2.0,2.2,75,0.00,,,0.00,WUHU216HW,2013-05-08 10:10:00,
2013-05-08 05:15:00,50.2,42.9,29.87,ESE,113,1.6,2.5,76,0.00,,,0.00,WUHU216HW,2013-05-08 10:15:00,
2013-05-08 05:20:00,50.0,43.4,29.87,ESE,113,1.1,2.5,78,0.00,,,0.00,WUHU216HW,2013-05-08 10:20:00,
2013-05-08 05:25:00,50.2,43.6,29.88,East,90,1.1,2.0,78,0.00,,,0.00,WUHU216HW,2013-05-08 10:25:00,
2013-05-08 05:30:00,50.0,43.1,29.88,East,90,0.7,1.6,77,0.00,,,0.00,WUHU216HW,2013-05-08 10:30:00,
2013-05-08 05:35:00,50.0,43.1,29.88,ESE,113,0.7,1.1,77,0.00,,,0.00,WUHU216HW,2013-05-08 10:35:00,
2013-05-08 05:40:00,50.0,43.4,29.88,ESE,113,0.7,1.6,78,0.00,,,0.00,WUHU216HW,2013-05-08 10:40:00,
2013-05-08 05:45:00,49.9,43.2,29.88,ESE,113,1.1,1.8,78,0.00,,,0.00,WUHU216HW,2013-05-08 10:45:00,
2013-05-08 05:50:00,49.7,42.8,29.88,SE,135,0.9,1.8,77,0.00,,,0.00,WUHU216HW,2013-05-08 10:50:00,
2013-05-08 05:55:00,49.7,42.8,29.88,SE,135,0.7,1.8,77,0.00,,,0.00,WUHU216HW,2013-05-08 10:55:00,
2013-05-08 06:00:00,49.7,42.8,29.88,SE,135,1.8,1.8,77,0.00,,,0.00,WUHU216HW,2013-05-08 11:00:00,
2013-05-08 06:05:00,49.7,42.8,29.88,SE,135,1.3,1.8,77,0.00,,,0.00,WUHU216HW,2013-05-08 11:05:00,
2013-05-08 06:10:00,49.9,42.9,29.88,SE,135,0.9,1.8,77,0.00,,,0.00,WUHU216HW,2013-05-08 11:10:00,
2013-05-08 06:15:00,50.6,43.9,29.89,SE,135,1.1,1.6,78,0.00,,,0.00,WUHU216HW,2013-05-08 11:15:00,
2013-05-08 06:20:00,52.2,45.2,29.89,SE,135,0.9,1.8,77,0.00,,,0.00,WUHU216HW,2013-05-08 11:20:00,
2013-05-08 06:25:00,54.7,47.6,29.89,SSE,158,0.9,1.8,77,0.00,,,0.00,WUHU216HW,2013-05-08 11:25:00,
2013-05-08 06:30:00,56.2,48.0,29.89,SE,135,0.4,1.6,74,0.00,,,0.00,WUHU216HW,2013-05-08 11:30:00,
2013-05-08 06:35:00,57.2,48.6,29.89,SE,135,0.0,1.3,73,0.00,,,0.00,WUHU216HW,2013-05-08 11:35:00,
2013-05-08 06:40:00,58.3,49.3,29.89,ESE,113,0.4,0.7,72,0.00,,,0.00,WUHU216HW,2013-05-08 11:40:00,
2013-05-08 06:45:00,59.9,49.8,29.89,SE,135,0.0,0.7,69,0.00,,,0.00,WUHU216HW,2013-05-08 11:45:00,
2013-05-08 06:50:00,61.9,51.7,29.89,SE,135,0.0,0.4,69,0.00,,,0.00,WUHU216HW,2013-05-08 11:50:00,
2013-05-08 06:55:00,64.4,52.4,29.90,SE,135,1.1,1.1,65,0.00,,,0.00,WUHU216HW,2013-05-08 11:55:00,
2013-05-08 07:00:00,66.2,52.8,29.90,SE,135,0.9,1.8,62,0.00,,,0.00,WUHU216HW,2013-05-08 12:00:00,
2013-05-08 07:05:00,67.3,53.0,29.89,ESE,113,1.3,1.8,60,0.00,,,0.00,WUHU216HW,2013-05-08 12:05:00,
2013-05-08 07:10:00,67.5,52.7,29.89,SSE,158,0.9,2.2,59,0.00,,,0.00,WUHU216HW,2013-05-08 12:10:00,
2013-05-08 07:15:00,66.6,51.4,29.90,SSE,158,2.0,2.5,58,0.00,,,0.00,WUHU216HW,2013-05-08 12:15:00,
2013-05-08 07:20:00,64.8,49.2,29.90,SSW,203,2.2,3.4,57,0.00,,,0.00,WUHU216HW,2013-05-08 12:20:00,
2013-05-08 07:25:00,63.4,48.8,29.90,SSE,158,1.8,3.4,59,0.00,,,0.00,WUHU216HW,2013-05-08 12:25:00,
2013-05-08 07:30:00,62.6,49.1,29.90,SE,135,2.5,4.0,61,0.00,,,0.00,WUHU216HW,2013-05-08 12:30:00,
2013-05-08 07:35:00,62.3,48.7,29.90,SSW,203,2.9,4.0,61,0.00,,,0.00,WUHU216HW,2013-05-08 12:35:00,
2013-05-08 07:40:00,62.3,48.7,29.90,SSE,158,4.0,4.5,61,0.00,,,0.00,WUHU216HW,2013-05-08 12:40:00,
2013-05-08 07:45:00,62.6,49.1,29.90,South,180,4.7,4.7,61,0.00,,,0.00,WUHU216HW,2013-05-08 12:45:00,
2013-05-08 07:50:00,62.6,49.1,29.90,South,180,1.8,4.7,61,0.00,,,0.00,WUHU216HW,2013-05-08 12:50:00,
2013-05-08 07:55:00,62.6,49.1,29.90,SSW,203,4.0,4.7,61,0.00,,,0.00,WUHU216HW,2013-05-08 12:55:00,
2013-05-08 08:00:00,63.0,49.3,29.90,South,180,4.0,4.7,61,0.00,,,0.00,WUHU216HW,2013-05-08 13:00:00,
2013-05-08 08:05:00,63.4,48.8,29.90,SE,135,3.8,4.7,59,0.00,,,0.00,WUHU216HW,2013-05-08 13:05:00,
2013-05-08 08:10:00,63.7,49.6,29.90,South,180,1.8,4.7,60,0.00,,,0.00,WUHU216HW,2013-05-08 13:10:00,
2013-05-08 08:15:00,64.4,50.2,29.90,SE,135,4.0,4.0,60,0.00,,,0.00,WUHU216HW,2013-05-08 13:15:00,
2013-05-08 08:20:00,64.8,50.6,29.90,SW,225,1.8,5.4,60,0.00,,,0.00,WUHU216HW,2013-05-08 13:20:00,
2013-05-08 08:25:00,65.3,50.1,29.90,SSW,203,3.4,5.4,58,0.00,,,0.00,WUHU216HW,2013-05-08 13:25:00,
2013-05-08 08:30:00,65.5,48.9,29.90,South,180,4.0,4.7,55,0.00,,,0.00,WUHU216HW,2013-05-08 13:30:00,
2013-05-08 08:35:00,65.7,48.6,29.90,SE,135,2.0,5.1,54,0.00,,,0.00,WUHU216HW,2013-05-08 13:35:00,
2013-05-08 08:40:00,66.2,49.6,29.90,SW,225,3.6,5.1,55,0.00,,,0.00,WUHU216HW,2013-05-08 13:40:00,
2013-05-08 08:45:00,66.8,49.2,29.90,SSE,158,2.9,5.4,53,0.00,,,0.00,WUHU216HW,2013-05-08 13:45:00,
2013-05-08 08:50:00,67.1,49.4,29.91,SSE,158,4.0,5.6,53,0.00,,,0.00,WUHU216HW,2013-05-08 13:50:00,
2013-05-08 08:55:00,67.3,47.0,29.90,SW,225,5.1,5.8,48,0.00,,,0.00,WUHU216HW,2013-05-08 13:55:00,
2013-05-08 08:59:00,67.3,49.2,29.91,SSW,203,5.4,6.3,52,0.00,,,0.00,WUHU216HW,2013-05-08 13:59:00,
2013-05-08 09:04:00,67.7,47.3,29.91,WSW,248,3.4,6.3,48,0.00,,,0.00,WUHU216HW,2013-05-08 14:04:00,
2013-05-08 09:09:00,68.0,48.8,29.91,SW,225,4.0,6.3,50,0.00,,,0.00,WUHU216HW,2013-05-08 14:09:00,
2013-05-08 09:14:00,68.6,50.2,29.90,SSW,203,3.4,5.4,52,0.00,,,0.00,WUHU216HW,2013-05-08 14:14:00,
2013-05-08 09:19:00,69.1,48.6,29.90,SW,225,6.3,7.2,48,0.00,,,0.00,WUHU216HW,2013-05-08 14:19:00,
2013-05-08 09:24:00,69.5,48.9,29.90,SW,225,4.5,7.8,48,0.00,,,0.00,WUHU216HW,2013-05-08 14:24:00,
2013-05-08 09:29:00,69.8,48.6,29.90,SSW,203,5.1,7.8,47,0.00,,,0.00,WUHU216HW,2013-05-08 14:29:00,
2013-05-08 09:34:00,70.0,48.2,29.90,SW,225,7.2,7.2,46,0.00,,,0.00,WUHU216HW,2013-05-08 14:34:00,
2013-05-08 09:39:00,69.8,48.1,29.90,SW,225,7.6,7.6,46,0.00,,,0.00,WUHU216HW,2013-05-08 14:39:00,
2013-05-08 09:44:00,70.0,48.8,29.90,SW,225,6.3,8.1,47,0.00,,,0.00,WUHU216HW,2013-05-08 14:44:00,
2013-05-08 09:49:00,70.2,48.3,29.90,SW,225,5.4,8.1,46,0.00,,,0.00,WUHU216HW,2013-05-08 14:49:00,
2013-05-08 09:54:00,70.6,49.2,29.90,SW,225,1.8,7.2,47,0.00,,,0.00,WUHU216HW,2013-05-08 14:54:00,
2013-05-08 09:59:00,70.7,50.6,29.90,SSW,203,2.5,7.2,49,0.00,,,0.00,WUHU216HW,2013-05-08 14:59:00,
2013-05-08 10:04:00,71.3,50.5,29.90,SW,225,3.8,5.4,48,0.00,,,0.00,WUHU216HW,2013-05-08 15:04:00,
2013-05-08 10:09:00,71.6,50.2,29.90,WSW,248,2.0,6.5,47,0.00,,,0.00,WUHU216HW,2013-05-08 15:09:00,
2013-05-08 10:14:00,72.0,50.0,29.90,SW,225,3.1,6.5,46,0.00,,,0.00,WUHU216HW,2013-05-08 15:14:00,
2013-05-08 10:19:00,72.5,50.5,29.90,SW,225,4.9,4.9,46,0.00,,,0.00,WUHU216HW,2013-05-08 15:19:00,
2013-05-08 10:24:00,73.1,49.8,29.90,SW,225,4.7,6.3,44,0.00,,,0.00,WUHU216HW,2013-05-08 15:24:00,
2013-05-08 10:29:00,73.3,52.3,29.90,SSE,158,3.4,6.3,48,0.00,,,0.00,WUHU216HW,2013-05-08 15:29:00,
2013-05-08 10:34:00,73.4,50.0,29.90,SSW,203,3.1,6.0,44,0.00,,,0.00,WUHU216HW,2013-05-08 15:34:00,
2013-05-08 10:39:00,73.8,49.9,29.90,SW,225,4.5,6.0,43,0.00,,,0.00,WUHU216HW,2013-05-08 15:39:00,
2013-05-08 10:44:00,74.5,49.9,29.90,SW,225,5.4,6.0,42,0.00,,,0.00,WUHU216HW,2013-05-08 15:44:00,
2013-05-08 10:49:00,74.7,51.8,29.90,WSW,248,2.9,5.8,45,0.00,,,0.00,WUHU216HW,2013-05-08 15:49:00,
2013-05-08 10:54:00,75.1,52.2,29.90,SSW,203,1.8,5.4,45,0.00,,,0.00,WUHU216HW,2013-05-08 15:54:00,
2013-05-08 10:59:00,75.2,50.0,29.90,WSW,248,4.7,6.9,41,0.00,,,0.00,WUHU216HW,2013-05-08 15:59:00,
2013-05-08 11:04:00,75.4,51.3,29.90,WSW,248,4.0,7.6,43,0.00,,,0.00,WUHU216HW,2013-05-08 16:04:00,
2013-05-08 11:09:00,76.1,50.8,29.90,SW,225,5.4,7.6,41,0.00,,,0.00,WUHU216HW,2013-05-08 16:09:00,
2013-05-08 11:14:00,76.7,49.9,29.90,WSW,248,4.7,6.9,39,0.00,,,0.00,WUHU216HW,2013-05-08 16:14:00,
2013-05-08 11:19:00,76.7,49.2,29.90,WSW,248,1.6,6.9,38,0.00,,,0.00,WUHU216HW,2013-05-08 16:19:00,
2013-05-08 11:24:00,76.3,50.3,29.89,SSW,203,2.5,5.1,40,0.00,,,0.00,WUHU216HW,2013-05-08 16:24:00,
2013-05-08 11:29:00,76.9,50.1,29.90,West,270,3.8,5.4,39,0.00,,,0.00,WUHU216HW,2013-05-08 16:29:00,
2013-05-08 11:34:00,76.9,48.5,29.89,West,270,3.8,6.3,37,0.00,,,0.00,WUHU216HW,2013-05-08 16:34:00,
2013-05-08 11:39:00,76.7,48.3,29.89,West,270,0.7,6.3,37,0.00,,,0.00,WUHU216HW,2013-05-08 16:39:00,
2013-05-08 11:44:00,76.9,47.0,29.89,South,180,1.1,6.0,35,0.00,,,0.00,WUHU216HW,2013-05-08 16:44:00,
2013-05-08 11:49:00,77.2,48.1,29.89,NNE,23,1.1,2.7,36,0.00,,,0.00,WUHU216HW,2013-05-08 16:49:00,
2013-05-08 11:54:00,77.8,46.3,29.89,WNW,293,2.5,4.5,33,0.00,,,0.00,WUHU216HW,2013-05-08 16:54:00,
2013-05-08 11:59:00,77.9,46.4,29.89,WSW,248,2.7,4.5,33,0.00,,,0.00,WUHU216HW,2013-05-08 16:59:00,
2013-05-08 12:04:00,77.8,45.5,29.89,NW,315,0.9,4.0,32,0.00,,,0.00,WUHU216HW,2013-05-08 17:04:00,
2013-05-08 12:09:00,77.8,46.3,29.89,NNE,23,2.5,4.3,33,0.00,,,0.00,WUHU216HW,2013-05-08 17:09:00,
2013-05-08 12:14:00,77.8,46.3,29.88,WNW,293,2.9,5.4,33,0.00,,,0.00,WUHU216HW,2013-05-08 17:14:00,
2013-05-08 12:19:00,77.6,43.8,29.88,ENE,68,0.9,5.4,30,0.00,,,0.00,WUHU216HW,2013-05-08 17:19:00,
2013-05-08 12:24:00,78.1,48.1,29.88,West,270,1.8,4.3,35,0.00,,,0.00,WUHU216HW,2013-05-08 17:24:00,
2013-05-08 12:29:00,78.8,48.7,29.88,WSW,248,1.8,4.7,35,0.00,,,0.00,WUHU216HW,2013-05-08 17:29:00,
2013-05-08 12:34:00,79.6,48.6,29.88,SW,225,6.7,7.6,34,0.00,,,0.00,WUHU216HW,2013-05-08 17:34:00,
2013-05-08 12:39:00,79.9,47.3,29.88,WSW,248,3.6,7.6,32,0.00,,,0.00,WUHU216HW,2013-05-08 17:39:00,
2013-05-08 12:44:00,79.7,47.2,29.88,West,270,2.0,6.7,32,0.00,,,0.00,WUHU216HW,2013-05-08 17:44:00,
2013-05-08 12:49:00,78.8,46.4,29.88,North,0,1.1,5.8,32,0.00,,,0.00,WUHU216HW,2013-05-08 17:49:00,
2013-05-08 12:54:00,79.2,45.9,29.88,SW,225,6.3,9.2,31,0.00,,,0.00,WUHU216HW,2013-05-08 17:54:00,
2013-05-08 12:59:00,80.1,44.9,29.88,SE,135,1.1,9.2,29,0.00,,,0.00,WUHU216HW,2013-05-08 17:59:00,
2013-05-08 13:04:00,79.7,43.6,29.87,NNE,23,2.7,6.3,28,0.00,,,0.00,WUHU216HW,2013-05-08 18:04:00,
2013-05-08 13:09:00,79.6,46.3,29.87,WSW,248,2.5,4.9,31,0.00,,,0.00,WUHU216HW,2013-05-08 18:09:00,
2013-05-08 13:14:00,80.6,47.3,29.87,SSW,203,2.9,6.9,31,0.00,,,0.00,WUHU216HW,2013-05-08 18:14:00,
2013-05-08 13:19:00,81.4,43.9,29.87,WSW,248,4.7,6.9,27,0.00,,,0.00,WUHU216HW,2013-05-08 18:19:00,
2013-05-08 13:24:00,80.8,42.4,29.87,West,270,2.5,7.2,26,0.00,,,0.00,WUHU216HW,2013-05-08 18:24:00,
2013-05-08 13:29:00,80.8,48.2,29.87,South,180,3.1,7.2,32,0.00,,,0.00,WUHU216HW,2013-05-08 18:29:00,
2013-05-08 13:34:00,81.5,48.0,29.87,SE,135,4.7,5.4,31,0.00,,,0.00,WUHU216HW,2013-05-08 18:34:00,
2013-05-08 13:39:00,82.1,50.8,29.86,SSW,203,2.5,7.6,34,0.00,,,0.00,WUHU216HW,2013-05-08 18:39:00,
2013-05-08 13:44:00,82.4,47.9,29.87,SE,135,6.0,7.6,30,0.00,,,0.00,WUHU216HW,2013-05-08 18:44:00,
2013-05-08 13:49:00,82.3,43.6,29.87,SE,135,2.9,7.6,26,0.00,,,0.00,WUHU216HW,2013-05-08 18:49:00,
2013-05-08 13:54:00,82.6,48.1,29.86,SE,135,4.5,7.6,30,0.00,,,0.00,WUHU216HW,2013-05-08 18:54:00,
2013-05-08 13:59:00,83.2,46.5,29.87,SSE,158,2.5,6.3,28,0.00,,,0.00,WUHU216HW,2013-05-08 18:59:00,
2013-05-08 14:04:00,83.3,41.3,29.86,WNW,293,11.6,11.6,23,0.00,,,0.00,WUHU216HW,2013-05-08 19:04:00,
2013-05-08 14:09:00,81.9,43.3,29.86,West,270,2.9,11.6,26,0.00,,,0.00,WUHU216HW,2013-05-08 19:09:00,
2013-05-08 14:14:00,82.6,42.9,29.86,SSW,203,4.3,11.6,25,0.00,,,0.00,WUHU216HW,2013-05-08 19:14:00,
2013-05-08 14:19:00,83.3,45.6,29.86,SSW,203,4.3,8.7,27,0.00,,,0.00,WUHU216HW,2013-05-08 19:19:00,
2013-05-08 14:24:00,83.5,43.6,29.86,SW,225,5.6,16.8,25,0.00,,,0.00,WUHU216HW,2013-05-08 19:24:00,
2013-05-08 14:29:00,83.3,43.5,29.86,SSW,203,6.9,16.8,25,0.00,,,0.00,WUHU216HW,2013-05-08 19:29:00,
2013-05-08 14:34:00,83.3,42.4,29.86,SSW,203,7.6,9.2,24,0.00,,,0.00,WUHU216HW,2013-05-08 19:34:00,
2013-05-08 14:39:00,83.2,43.3,29.86,SW,225,13.4,13.4,25,0.00,,,0.00,WUHU216HW,2013-05-08 19:39:00,
2013-05-08 14:44:00,83.0,44.2,29.86,WSW,248,3.6,13.4,26,0.00,,,0.00,WUHU216HW,2013-05-08 19:44:00,
2013-05-08 14:49:00,82.8,44.0,29.86,SSW,203,7.4,14.3,26,0.00,,,0.00,WUHU216HW,2013-05-08 19:49:00,
2013-05-08 14:54:00,82.6,43.8,29.86,WSW,248,8.1,14.3,26,0.00,,,0.00,WUHU216HW,2013-05-08 19:54:00,
2013-05-08 14:59:00,82.4,43.8,29.86,SW,225,9.4,12.5,26,0.00,,,0.00,WUHU216HW,2013-05-08 19:59:00,
2013-05-08 15:04:00,82.3,43.6,29.86,SSW,203,7.6,11.2,26,0.00,,,0.00,WUHU216HW,2013-05-08 20:04:00,
2013-05-08 15:09:00,82.1,47.6,29.86,SW,225,8.7,9.8,30,0.00,,,0.00,WUHU216HW,2013-05-08 20:09:00,
2013-05-08 15:14:00,82.4,45.8,29.86,WNW,293,3.1,11.4,28,0.00,,,0.00,WUHU216HW,2013-05-08 20:14:00,
2013-05-08 15:19:00,82.3,43.6,29.85,SW,225,8.5,11.4,26,0.00,,,0.00,WUHU216HW,2013-05-08 20:19:00,
2013-05-08 15:24:00,82.6,46.0,29.85,West,270,2.5,10.7,28,0.00,,,0.00,WUHU216HW,2013-05-08 20:24:00,
2013-05-08 15:29:00,82.4,46.8,29.85,South,180,4.3,9.2,29,0.00,,,0.00,WUHU216HW,2013-05-08 20:29:00,
2013-05-08 15:34:00,82.4,45.8,29.85,SW,225,8.3,9.2,28,0.00,,,0.00,WUHU216HW,2013-05-08 20:34:00,
2013-05-08 15:39:00,82.1,46.5,29.85,SSW,203,4.0,9.8,29,0.00,,,0.00,WUHU216HW,2013-05-08 20:39:00,
2013-05-08 15:44:00,82.3,44.7,29.84,SW,225,6.0,12.8,27,0.00,,,0.00,WUHU216HW,2013-05-08 20:44:00,
2013-05-08 15:49:00,82.4,43.8,29.85,SW,225,6.7,12.8,26,0.00,,,0.00,WUHU216HW,2013-05-08 20:49:00,
2013-05-08 15:54:00,82.8,45.1,29.84,SSW,203,6.3,9.8,27,0.00,,,0.00,WUHU216HW,2013-05-08 20:54:00,
2013-05-08 15:59:00,82.4,43.8,29.84,West,270,4.9,11.6,26,0.00,,,0.00,WUHU216HW,2013-05-08 20:59:00,
2013-05-08 16:04:00,81.9,45.4,29.84,SSW,203,5.8,11.6,28,0.00,,,0.00,WUHU216HW,2013-05-08 21:04:00,
2013-05-08 16:09:00,81.7,43.1,29.84,SW,225,7.4,8.9,26,0.00,,,0.00,WUHU216HW,2013-05-08 21:09:00,
2013-05-08 16:14:00,81.7,46.3,29.84,WSW,248,2.5,7.6,29,0.00,,,0.00,WUHU216HW,2013-05-08 21:14:00,
2013-05-08 16:19:00,81.7,45.2,29.84,WSW,248,4.7,9.2,28,0.00,,,0.00,WUHU216HW,2013-05-08 21:19:00,
2013-05-08 16:24:00,81.9,45.4,29.84,WSW,248,4.5,9.2,28,0.00,,,0.00,WUHU216HW,2013-05-08 21:24:00,
2013-05-08 16:29:00,82.3,46.7,29.84,WSW,248,5.4,8.5,29,0.00,,,0.00,WUHU216HW,2013-05-08 21:29:00,
2013-05-08 16:34:00,83.2,47.5,29.84,WSW,248,3.8,5.6,29,0.00,,,0.00,WUHU216HW,2013-05-08 21:34:00,
2013-05-08 16:39:00,83.5,44.7,29.84,SW,225,2.7,5.8,26,0.00,,,0.00,WUHU216HW,2013-05-08 21:39:00,
2013-05-08 16:44:00,83.5,46.7,29.84,WSW,248,4.0,5.8,28,0.00,,,0.00,WUHU216HW,2013-05-08 21:44:00,
2013-05-08 16:49:00,83.9,47.1,29.84,SW,225,1.3,4.7,28,0.00,,,0.00,WUHU216HW,2013-05-08 21:49:00,
2013-05-08 16:54:00,83.5,44.7,29.84,West,270,5.8,8.5,26,0.00,,,0.00,WUHU216HW,2013-05-08 21:54:00,
2013-05-08 16:59:00,82.4,43.8,29.84,North,0,0.7,8.5,26,0.00,,,0.00,WUHU216HW,2013-05-08 21:59:00,
2013-05-08 17:04:00,82.1,45.6,29.84,ENE,68,1.1,6.3,28,0.00,,,0.00,WUHU216HW,2013-05-08 22:04:00,
2013-05-08 17:09:00,82.1,46.5,29.84,SSW,203,0.4,1.1,29,0.00,,,0.00,WUHU216HW,2013-05-08 22:09:00,
2013-05-08 17:14:00,82.3,45.6,29.84,SW,225,4.0,4.7,28,0.00,,,0.00,WUHU216HW,2013-05-08 22:14:00,
2013-05-08 17:19:00,82.1,45.6,29.84,SE,135,0.4,4.7,28,0.00,,,0.00,WUHU216HW,2013-05-08 22:19:00,
2013-05-08 17:24:00,81.9,47.4,29.83,SW,225,1.3,4.7,30,0.00,,,0.00,WUHU216HW,2013-05-08 22:24:00,
2013-05-08 17:29:00,81.7,46.3,29.83,NNE,23,1.3,3.8,29,0.00,,,0.00,WUHU216HW,2013-05-08 22:29:00,
2013-05-08 17:34:00,81.5,45.1,29.83,SW,225,6.3,8.7,28,0.00,,,0.00,WUHU216HW,2013-05-08 22:34:00,
2013-05-08 17:39:00,81.5,47.2,29.83,SE,135,1.8,8.7,30,0.00,,,0.00,WUHU216HW,2013-05-08 22:39:00,
2013-05-08 17:44:00,81.0,44.6,29.83,South,180,2.2,6.5,28,0.00,,,0.00,WUHU216HW,2013-05-08 22:44:00,
2013-05-08 17:49:00,80.6,45.4,29.83,WSW,248,4.7,6.3,29,0.00,,,0.00,WUHU216HW,2013-05-08 22:49:00,
2013-05-08 17:54:00,80.3,45.1,29.83,SW,225,1.3,6.3,29,0.00,,,0.00,WUHU216HW,2013-05-08 22:54:00,
2013-05-08 17:59:00,79.9,43.8,29.83,West,270,0.9,4.7,28,0.00,,,0.00,WUHU216HW,2013-05-08 22:59:00,
2013-05-08 18:04:00,79.6,43.4,29.83,WNW,293,2.5,5.6,28,0.00,,,0.00,WUHU216HW,2013-05-08 23:04:00,
2013-05-08 18:08:00,79.4,44.3,29.83,West,270,3.1,5.6,29,0.00,,,0.00,WUHU216HW,2013-05-08 23:08:00,
2013-05-08 18:13:00,79.6,44.5,29.83,WNW,293,2.5,4.3,29,0.00,,,0.00,WUHU216HW,2013-05-08 23:13:00,
2013-05-08 18:18:00,79.6,45.5,29.83,WSW,248,2.2,4.0,30,0.00,,,0.00,WUHU216HW,2013-05-08 23:18:00,
2013-05-08 18:24:00,79.6,44.5,29.83,WSW,248,3.4,4.0,29,0.00,,,0.00,WUHU216HW,2013-05-08 23:24:00,
2013-05-08 18:28:00,80.3,46.1,29.83,WSW,248,3.6,4.5,30,0.00,,,0.00,WUHU216HW,2013-05-08 23:28:00,
2013-05-08 18:34:00,81.5,46.1,29.83,SW,225,3.6,5.4,29,0.00,,,0.00,WUHU216HW,2013-05-08 23:34:00,
2013-05-08 18:39:00,83.2,47.5,29.83,SW,225,6.9,6.9,29,0.00,,,0.00,WUHU216HW,2013-05-08 23:39:00,
2013-05-08 18:44:00,84.6,47.7,29.83,WSW,248,4.9,6.9,28,0.00,,,0.00,WUHU216HW,2013-05-08 23:44:00,
2013-05-08 18:48:00,84.1,46.2,29.83,SW,225,4.7,6.9,27,0.00,,,0.00,WUHU216HW,2013-05-08 23:48:00,
2013-05-08 18:53:00,82.6,46.0,29.83,SW,225,2.2,5.6,28,0.00,,,0.00,WUHU216HW,2013-05-08 23:53:00,
2013-05-08 18:58:00,81.2,45.8,29.83,SW,225,2.5,4.7,29,0.00,,,0.00,WUHU216HW,2013-05-08 23:58:00,
2013-05-08 19:03:00,79.9,44.7,29.83,WSW,248,2.7,4.0,29,0.00,,,0.00,WUHU216HW,2013-05-09 00:03:00,
2013-05-08 19:08:00,79.0,45.0,29.83,WSW,248,1.8,4.0,30,0.00,,,0.00,WUHU216HW,2013-05-09 00:08:00,
2013-05-08 19:13:00,78.5,45.3,29.83,SW,225,1.8,3.1,31,0.00,,,0.00,WUHU216HW,2013-05-09 00:13:00,
2013-05-08 19:18:00,77.9,45.6,29.83,SW,225,1.1,2.5,32,0.00,,,0.00,WUHU216HW,2013-05-09 00:18:00,
2013-05-08 19:23:00,77.2,45.0,29.83,SW,225,1.1,1.8,32,0.00,,,0.00,WUHU216HW,2013-05-09 00:23:00,
2013-05-08 19:28:00,76.5,45.2,29.83,SW,225,1.1,1.8,33,0.00,,,0.00,WUHU216HW,2013-05-09 00:28:00,
2013-05-08 19:33:00,75.8,44.6,29.83,SSW,203,1.1,1.3,33,0.00,,,0.00,WUHU216HW,2013-05-09 00:33:00,
2013-05-08 19:38:00,74.9,44.5,29.83,SW,225,1.6,1.6,34,0.00,,,0.00,WUHU216HW,2013-05-09 00:38:00,
2013-05-08 19:43:00,74.2,44.6,29.83,SSW,203,0.7,1.6,35,0.00,,,0.00,WUHU216HW,2013-05-09 00:43:00,
2013-05-08 19:48:00,73.6,44.1,29.83,SSW,203,0.0,1.6,35,0.00,,,0.00,WUHU216HW,2013-05-09 00:48:00,
2013-05-08 19:53:00,73.1,43.7,29.83,SSW,203,0.0,0.7,35,0.00,,,0.00,WUHU216HW,2013-05-09 00:53:00,
2013-05-08 19:58:00,72.7,44.8,29.83,SSW,203,0.0,0.0,37,0.00,,,0.00,WUHU216HW,2013-05-09 00:58:00,
2013-05-08 20:03:00,72.2,45.1,29.83,SSW,203,0.0,0.0,38,0.00,,,0.00,WUHU216HW,2013-05-09 01:03:00,
2013-05-08 20:08:00,71.6,44.7,29.83,SSW,203,0.0,0.0,38,0.00,,,0.00,WUHU216HW,2013-05-09 01:08:00,
2013-05-08 20:13:00,70.9,44.7,29.83,SE,135,0.0,0.7,39,0.00,,,0.00,WUHU216HW,2013-05-09 01:13:00,
2013-05-08 20:18:00,70.4,45.5,29.83,SSE,158,0.0,0.7,41,0.00,,,0.00,WUHU216HW,2013-05-09 01:18:00,
2013-05-08 20:23:00,70.0,45.2,29.83,SSE,158,0.0,0.7,41,0.00,,,0.00,WUHU216HW,2013-05-09 01:23:00,
2013-05-08 20:28:00,69.7,45.5,29.83,SSE,158,0.0,0.0,42,0.00,,,0.00,WUHU216HW,2013-05-09 01:28:00,
2013-05-08 20:33:00,69.3,45.2,29.84,SSE,158,0.0,0.0,42,0.00,,,0.00,WUHU216HW,2013-05-09 01:33:00,
2013-05-08 20:38:00,68.8,45.3,29.84,SSE,158,0.0,0.0,43,0.00,,,0.00,WUHU216HW,2013-05-09 01:38:00,
2013-05-08 20:43:00,68.2,47.2,29.84,SSE,158,0.0,0.0,47,0.00,,,0.00,WUHU216HW,2013-05-09 01:43:00,
2013-05-08 20:48:00,67.9,46.8,29.84,SSW,203,0.0,0.0,47,0.00,,,0.00,WUHU216HW,2013-05-09 01:48:00,
2013-05-08 20:53:00,67.5,47.1,29.84,WSW,248,0.4,1.3,48,0.00,,,0.00,WUHU216HW,2013-05-09 01:53:00,
2013-05-08 20:58:00,67.0,46.6,29.84,WSW,248,0.7,1.3,48,0.00,,,0.00,WUHU216HW,2013-05-09 01:58:00,
2013-05-08 21:03:00,66.6,45.7,29.85,WSW,248,0.2,1.1,47,0.00,,,0.00,WUHU216HW,2013-05-09 02:03:00,
2013-05-08 21:08:00,66.1,45.8,29.85,SE,135,1.3,1.8,48,0.00,,,0.00,WUHU216HW,2013-05-09 02:08:00,
2013-05-08 21:13:00,65.5,44.6,29.85,SE,135,0.0,1.8,47,0.00,,,0.00,WUHU216HW,2013-05-09 02:13:00,
2013-05-08 21:18:00,65.2,44.9,29.85,SE,135,0.0,1.3,48,0.00,,,0.00,WUHU216HW,2013-05-09 02:18:00,
2013-05-08 21:23:00,65.2,44.4,29.85,SE,135,0.0,0.0,47,0.00,,,0.00,WUHU216HW,2013-05-09 02:23:00,
2013-05-08 21:28:00,65.2,44.9,29.85,SSW,203,0.0,0.0,48,0.00,,,0.00,WUHU216HW,2013-05-09 02:28:00,
2013-05-08 21:33:00,65.2,46.1,29.85,SSW,203,0.0,0.0,50,0.00,,,0.00,WUHU216HW,2013-05-09 02:33:00,
2013-05-08 21:38:00,65.0,45.4,29.85,SSW,203,0.0,0.0,49,0.00,,,0.00,WUHU216HW,2013-05-09 02:38:00,
2013-05-08 21:43:00,64.8,45.7,29.85,ESE,113,1.6,1.6,50,0.00,,,0.00,WUHU216HW,2013-05-09 02:43:00,
2013-05-08 21:48:00,64.1,46.5,29.85,East,90,3.6,4.0,53,0.00,,,0.00,WUHU216HW,2013-05-09 02:48:00,
2013-05-08 21:53:00,64.1,45.6,29.85,SSE,158,3.6,6.3,51,0.00,,,0.00,WUHU216HW,2013-05-09 02:53:00,
2013-05-08 21:58:00,64.4,45.8,29.85,ESE,113,3.1,6.3,51,0.00,,,0.00,WUHU216HW,2013-05-09 02:58:00,
2013-05-08 22:03:00,64.8,46.2,29.86,SE,135,1.8,6.0,51,0.00,,,0.00,WUHU216HW,2013-05-09 03:03:00,
2013-05-08 22:08:00,64.8,46.2,29.86,SE,135,2.9,4.7,51,0.00,,,0.00,WUHU216HW,2013-05-09 03:08:00,
2013-05-08 22:13:00,64.6,46.0,29.85,SE,135,3.4,4.7,51,0.00,,,0.00,WUHU216HW,2013-05-09 03:13:00,
2013-05-08 22:18:00,64.8,46.7,29.85,SE,135,4.0,6.3,52,0.00,,,0.00,WUHU216HW,2013-05-09 03:18:00,
2013-05-08 22:23:00,64.8,46.7,29.85,ESE,113,4.7,6.3,52,0.00,,,0.00,WUHU216HW,2013-05-09 03:23:00,
2013-05-08 22:28:00,64.8,46.7,29.85,ESE,113,3.4,5.8,52,0.00,,,0.00,WUHU216HW,2013-05-09 03:28:00,
2013-05-08 22:33:00,64.4,45.8,29.85,SSE,158,2.7,5.8,51,0.00,,,0.00,WUHU216HW,2013-05-09 03:33:00,
2013-05-08 22:38:00,64.3,46.2,29.85,SE,135,2.9,4.0,52,0.00,,,0.00,WUHU216HW,2013-05-09 03:38:00,
2013-05-08 22:43:00,64.1,46.0,29.85,ESE,113,2.5,5.4,52,0.00,,,0.00,WUHU216HW,2013-05-09 03:43:00,
2013-05-08 22:48:00,64.1,46.5,29.85,SE,135,2.0,5.4,53,0.00,,,0.00,WUHU216HW,2013-05-09 03:48:00,
2013-05-08 22:53:00,63.9,46.4,29.85,SE,135,0.7,4.0,53,0.00,,,0.00,WUHU216HW,2013-05-09 03:53:00,
2013-05-08 22:58:00,63.7,46.2,29.85,SE,135,0.0,2.5,53,0.00,,,0.00,WUHU216HW,2013-05-09 03:58:00,
2013-05-08 23:01:00,63.5,46.0,29.85,ESE,113,1.8,2.5,53,0.00,,,0.00,WUHU216HW,2013-05-09 04:01:00,
2013-05-08 23:06:00,63.4,45.8,29.85,ESE,113,1.1,2.5,53,0.00,,,0.00,WUHU216HW,2013-05-09 04:06:00,
2013-05-08 23:11:00,63.4,46.4,29.85,East,90,0.7,2.5,54,0.00,,,0.00,WUHU216HW,2013-05-09 04:11:00,
2013-05-08 23:16:00,63.2,46.2,29.85,SE,135,0.9,1.8,54,0.00,,,0.00,WUHU216HW,2013-05-09 04:16:00,
2013-05-08 23:21:00,63.2,46.2,29.84,SSW,203,1.1,2.5,54,0.00,,,0.00,WUHU216HW,2013-05-09 04:21:00,
2013-05-08 23:26:00,63.4,47.4,29.84,SSE,158,1.8,2.5,56,0.00,,,0.00,WUHU216HW,2013-05-09 04:26:00,
2013-05-08 23:31:00,63.5,47.0,29.84,SSE,158,3.4,3.4,55,0.00,,,0.00,WUHU216HW,2013-05-09 04:31:00,
2013-05-08 23:36:00,63.7,47.2,29.83,SSW,203,2.0,3.4,55,0.00,,,0.00,WUHU216HW,2013-05-09 04:36:00,
2013-05-08 23:41:00,63.7,46.6,29.84,SW,225,1.1,2.9,54,0.00,,,0.00,WUHU216HW,2013-05-09 04:41:00,
2013-05-08 23:46:00,63.7,46.6,29.84,South,180,0.4,2.9,54,0.00,,,0.00,WUHU216HW,2013-05-09 04:46:00,
2013-05-08 23:51:00,63.7,46.2,29.84,SSW,203,0.9,1.6,53,0.00,,,0.00,WUHU216HW,2013-05-09 04:51:00,
2013-05-08 23:56:00,63.4,45.8,29.83,SSE,158,0.0,1.6,53,0.00,,,0.00,WUHU216HW,2013-05-09 04:56:00,